Location: ????????
(55.0559°N, 39.1270°E)
Time: 16:57:59
(UTC+00:00)

Aureole 3 Rocket - Pass Details

Date: 15 November 2025
Orbit: 398 x 1690 km, 82.5° (Epoch: 14 December)

Event Time Altitude Azimuth Distance (km) Brightness Sun altitude
Exits shadow 02:35:59 - 345° (NNW) 2,356 5.8 -19.6°
Reaches altitude 10° 02:36:33 10° 345° (NNW) 2,131 5.6 -19.6°
Maximum altitude 02:41:18 74° 261° (W) 886 3.6 -18.9°
Drops below altitude 10° 02:47:56 10° 178° (S) 2,953 6.6 -17.9°
Sets 02:51:00 0° 177° (S) 4,119 7.4 -17.5°
